Flag Weather past 2 weeks in Syktyvkar, Russia

Now
30 °F

Overcast.


Feels Like: 24 °F
Forecast: 24 / 32 °F
Wind: 6 mph from Southwest

Location: Syktyvkar Airport

Current Time: Oct 31, 2014 at 8:11:59 AM

Latest Report: Oct 31, 2014 at 7:30 AM


Visibility: 6 mi

Pressure: 29.74 "Hg

Humidity: 93%

Dew point: 28 °F

Location of SyktyvkarLocation

Historic Weather in Syktyvkar — Graph

°F

Syktyvkar temperature yesterday

Maximum temperature yesterday: 45 °F (at 12:00 AM)
Minimum temperature yesterday: 32 °F (at 8:30 PM)
Average temperature yesterday: 37 °F

Past Weeks' High & Low Weather Summary

 TemperatureHumidityPressure
High46 °F (Oct 29, 9:00 PM)100% (Oct 27, 11:30 PM)30.42 "Hg (Oct 27, 11:30 PM)
Low1 °F (Oct 22, 6:00 AM)50% (Oct 20, 2:30 PM)29.59 "Hg (Oct 28, 1:00 PM)
Average22 °F81%30.00 "Hg
* Reported Oct 16 7:00 AM — Oct 31 6:30 AM, Syktyvkar, Weather by CustomWeather, © 2014

Note: Actual official high and low records may vary slightly from our data, if they occured in-between our weather recording intervals... More about our weather records

Advertising

Syktyvkar weather history for previous 24 hours

 ConditionsComfort  
Time TempWeatherWind HumidityBarometerVisibility
6:30 AM
Oct 31
32 °FMostly cloudy.6 mph87%29.74 "Hg6 mi
6:00 AM32 °FOvercast.6 mph87%29.74 "Hg6 mi
5:30 AM32 °FOvercast.6 mph87%29.74 "Hg6 mi
5:00 AM32 °FOvercast.3 mph87%29.77 "Hg6 mi
4:30 AM32 °FClear.3 mph87%29.77 "Hg10 mi
4:00 AM32 °FClear.6 mph87%29.77 "Hg10 mi
3:30 AM32 °FClear.3 mph87%29.77 "Hg10 mi
3:00 AM32 °FOvercast.6 mph87%29.77 "Hg6 mi
2:30 AM32 °FPassing clouds.6 mph93%29.80 "Hg6 mi
2:00 AM32 °FClear.6 mph87%29.80 "Hg10 mi
1:30 AM32 °FClear.6 mph87%29.80 "Hg10 mi
1:00 AM32 °FClear.3 mph87%29.80 "Hg10 mi
12:30 AM32 °FClear.6 mph87%29.83 "Hg10 mi
12:00 AM32 °FClear.6 mph87%29.83 "Hg10 mi
11:30 PM
Oct 30
32 °FClear.6 mph87%29.83 "Hg10 mi
11:00 PM32 °FClear.6 mph87%29.83 "Hg10 mi
10:30 PM32 °FPassing clouds.6 mph87%29.83 "Hg6 mi
10:00 PM32 °FClear.3 mph87%29.83 "Hg10 mi
9:30 PM32 °FClear.6 mph87%29.86 "Hg10 mi
9:00 PM32 °FClear.6 mph87%29.86 "Hg10 mi
8:30 PM32 °FClear.3 mph80%29.86 "Hg10 mi
8:00 PM34 °FClear.6 mph87%29.86 "Hg10 mi
7:30 PM34 °FClear.6 mph87%29.86 "Hg10 mi
7:00 PM36 °FClear.6 mph81%29.86 "Hg10 mi
6:30 PM36 °FClear.8 mph81%29.86 "Hg10 mi
6:00 PM36 °FClear.6 mph81%29.86 "Hg10 mi
5:30 PM36 °FClear.6 mph81%29.86 "Hg10 mi
5:00 PM36 °FClear.6 mph81%29.86 "Hg10 mi
4:30 PM36 °FSunny.6 mph81%29.86 "Hg10 mi
3:30 PM37 °FSunny.6 mph75%29.83 "Hg10 mi
3:00 PM39 °FSunny.6 mph75%29.83 "Hg10 mi
2:30 PM41 °FSunny.6 mph70%29.83 "Hg10 mi
2:00 PM41 °FSunny.6 mph66%29.83 "Hg10 mi
1:30 PM43 °FSunny.8 mph66%29.83 "Hg10 mi
1:00 PM43 °FSunny.8 mph66%29.80 "Hg10 mi
12:30 PM41 °FSunny.8 mph70%29.80 "Hg10 mi
12:00 PM41 °FSunny.8 mph66%29.80 "Hg10 mi
11:30 AM41 °FSunny.8 mph70%29.80 "Hg10 mi
11:00 AM39 °FMostly cloudy.8 mph75%29.80 "Hg6 mi
10:30 AM39 °FMostly cloudy.8 mph75%29.77 "Hg6 mi
10:00 AM37 °FMostly cloudy.6 mph81%29.77 "Hg6 mi
9:30 AM37 °FMostly cloudy.8 mph81%29.77 "Hg6 mi
9:00 AM37 °FBroken clouds.8 mph81%29.74 "Hg5 mi
8:30 AM36 °FPartly sunny.6 mph87%29.74 "Hg5 mi
8:00 AM36 °FPartly sunny.8 mph87%29.74 "Hg5 mi
Weather by CustomWeather, © 2014

See weather overviewHow to use our weather pages